Home   Weather   Lahore   Past weeks

Flag for Pakistan Past Weather in Lahore, Pakistan — Yesterday and Last 2 Weeks

Now
81 °F

Passing clouds.


Feels Like: 80 °F
Forecast: 68 / 99 °F
Wind: 12 mph from East

Location: Lahore Airport

Current Time: Apr 30, 2017 at 9:56:17 pm

Latest Report: Apr 30, 2017 at 9:00 pm


Visibility: 2 mi

Pressure: 29.80 "Hg

Humidity: 32%

Dew Point: 48 °F

Location of LahoreLocation

Past Weather in Lahore — Graph

°F

Lahore Temperature Yesterday

Maximum temperature yesterday: 93 °F (at 3:55 pm)
Minimum temperature yesterday: 75 °F (at 5:25 am)
Average temperature yesterday: 84 °F

High & Low Weather Summary for the Past Weeks

 TemperatureHumidityPressure
High113 °F (Apr 18, 1:55 pm)100% (Apr 18, 6:30 am)30.04 "Hg (Apr 18, 6:30 am)
Low66 °F (Apr 24, 4:25 am)8% (Apr 18, 3:25 pm)29.45 "Hg (Apr 20, 3:55 pm)
Average88 °F37%29.68 "Hg
* Reported Apr 15 8:25 pm — Apr 30 8:25 pm, Lahore, Weather by CustomWeather, © 2017

Note: Actual official high and low records may vary slightly from our data, if they occured in-between our weather recording intervals... More about our weather records

Advertising

Lahore Weather History for the Previous 24 Hours

Scroll right to see more
 ConditionsComfort  
Time TempWeatherWind HumidityBarometerVisibility
8:25 pm
Sun, Apr 30
84 °FThundershowers. Partly cloudy.18 mph31%N/A2 mi
7:25 pm90 °FPassing clouds.6 mph26%29.74 "Hg3 mi
7:00 pm91 °FPassing clouds.6 mph24%29.74 "Hg3 mi
6:30 pm95 °FPassing clouds.3 mph20%29.74 "Hg4 mi
5:55 pm95 °FPassing clouds.7 mph20%29.71 "Hg4 mi
5:30 pm95 °FPassing clouds.5 mph20%29.71 "Hg4 mi
4:25 pm99 °FPassing clouds.6 mph18%29.71 "Hg4 mi
3:55 pm99 °FPassing clouds.3 mph18%29.74 "Hg5 mi
3:25 pm97 °FPassing clouds.5 mph19%29.74 "Hg5 mi
2:55 pm97 °FPassing clouds.No wind19%29.74 "Hg5 mi
2:00 pm95 °FPassing clouds.8 mph22%29.77 "Hg5 mi
12:55 pm93 °FClear.12 mph24%29.80 "Hg5 mi
12:25 pm93 °FClear.13 mph23%29.80 "Hg5 mi
11:55 am91 °FClear.12 mph26%29.83 "Hg5 mi
11:25 am86 °FClear.13 mph35%29.83 "Hg5 mi
10:25 am84 °FClear.13 mph37%29.83 "Hg4 mi
9:55 am84 °FClear.12 mph40%29.83 "Hg4 mi
9:25 am82 °FClear.13 mph40%29.83 "Hg4 mi
8:55 am81 °FClear.10 mph45%29.83 "Hg4 mi
8:25 am81 °FHaze.13 mph42%29.83 "Hg3 mi
7:55 am79 °FHaze.9 mph45%29.80 "Hg3 mi
7:25 am77 °FWarm.8 mph51%29.80 "HgN/A
6:29 am75 °FSmoke.No wind57%29.77 "Hg2 mi
5:59 am75 °FScattered clouds.3 mph57%N/A2 mi
5:29 am73 °FThundershowers. Broken clouds.3 mph65%29.74 "Hg2 mi
4:59 am73 °FThundershowers. Partly cloudy.5 mph65%N/A2 mi
4:30 am75 °FThundershowers. Partly cloudy.6 mph61%29.74 "Hg2 mi
4:00 am77 °FThundershowers. Partly cloudy.6 mph57%N/A2 mi
3:29 am79 °FThundershowers. Partly cloudy.8 mph42%N/A2 mi
2:55 am79 °FPassing clouds.8 mph42%29.68 "Hg2 mi
2:25 am79 °FPassing clouds.5 mph39%29.71 "Hg2 mi
1:55 am79 °FPassing clouds.12 mph39%29.71 "Hg2 mi
1:25 am81 °FPassing clouds.10 mph37%29.71 "Hg2 mi
12:25 am82 °FPassing clouds.9 mph37%29.74 "Hg2 mi
11:55 pm
Sat, Apr 29
82 °FPassing clouds.14 mph37%29.74 "Hg2 mi
11:25 pm82 °FPassing clouds.14 mph37%29.74 "Hg2 mi
10:55 pm82 °FPassing clouds.14 mph37%30.04 "Hg2 mi
10:25 pm84 °FPassing clouds.12 mph33%29.74 "Hg2 mi
9:55 pm84 °FHaze.14 mph33%29.74 "Hg2 mi
9:25 pm86 °FHaze.13 mph31%29.74 "Hg2 mi
Weather by CustomWeather, © 2017

See weather overviewHow to use our weather pages